Tracking 25710 objects as of 7-Jul-2022
HD Live streaming from Space Station
objects crossing your sky now

DELTA 1 DEB

Track DELTA 1 DEB now!
10-day predictions


NORAD ID: 42568
Int'l Code: 1972-058KB
Perigee: 819.5 km
Apogee: 861.8 km
Inclination: 99.0 °
Period: 101.6 minutes
Semi major axis: 7211 km
RCS: Unknown
Launch date: July 23, 1972
Source: United States (US)
Launch site: AIR FORCE WESTERN TEST RANGE (AFWTR)

Note: This is SATELLITE DEBRIS
aabbcc
Your satellite tracking list
Your tracking list is empty




NASA's NSSDC Master Catalog

Two Line Element Set (TLE):
1 42568U 72058KB  22185.69170734  .00000205  00000-0  12276-3 0  9990
2 42568  98.9689 178.3330 0029300  37.7720 322.5504 14.17597009886063
Source of the keplerian elements: AFSPC